Location: Joplin, MO
(37.0842°N, 94.5133°W)
Time: 18:28:25
(UTC+02:00)

Transit 4A - All Passes

Search period start: 31 March 2023 00:00
Search period end: 10 April 2023 00:00
Orbit: 868 x 976 km, 66.8° (Epoch: 30 March)

Date Brightness Start Highest point End Pass type
(mag) Time Alt. Az. Time Alt. Az. Time Alt. Az.
31 Mar - 12:09:12 10° S 12:14:18 33° ESE 12:19:29 10° NE visible
31 Mar - 13:55:16 10° WSW 14:00:32 35° NW 14:05:54 10° N daylight
31 Mar - 21:13:26 10° N 21:18:41 28° NE 21:23:59 10° ESE daylight
31 Mar - 22:59:17 10° NW 23:05:14 49° WSW 23:11:18 10° S daylight
01 Apr - 12:17:44 10° S 12:23:20 52° ESE 12:29:01 10° NE visible
01 Apr - 14:05:19 10° WSW 14:09:57 24° NW 14:14:41 10° N daylight
01 Apr - 21:22:17 10° NNW 21:28:05 40° NE 21:33:58 10° SE daylight
01 Apr - 23:08:50 10° NW 23:14:16 32° WSW 23:19:48 10° S daylight
02 Apr - 12:26:38 10° SSW 12:32:25 80° ESE 12:38:20 10° NNE visible
02 Apr - 14:15:46 10° W 14:19:28 17° NW 14:23:14 10° N daylight
02 Apr - 19:48:03 10° NNE 19:49:44 11° NE 19:51:26 10° NE daylight
02 Apr - 21:31:16 10° NNW 21:37:23 59° ENE 21:43:36 10° SE daylight
02 Apr - 23:18:44 10° WNW 23:23:15 21° WSW 23:27:49 10° SSW daylight
03 Apr - 10:52:44 10° SE 10:55:59 15° ESE 10:59:16 10° ENE visible
03 Apr - 12:35:50 10° SW 12:41:36 68° WNW 12:47:30 10° NNE visible
03 Apr - 14:27:00 10° WNW 14:29:06 12° NW 14:31:14 10° NNW daylight
03 Apr - 19:55:45 10° N 19:59:24 16° NE 20:03:05 10° E daylight
03 Apr - 21:40:22 10° NNW 21:46:37 86° ENE 21:52:58 10° SSE daylight
03 Apr - 23:29:23 10° WNW 23:32:09 13° WSW 23:34:56 10° SW daylight
04 Apr - 11:00:18 10° SSE 11:04:53 25° ESE 11:09:32 10° NE visible
04 Apr - 12:45:20 10° SW 12:50:52 45° WNW 12:56:32 10° NNE visible
04 Apr - 20:04:12 10° N 20:08:57 22° NE 20:13:45 10° E daylight
04 Apr - 21:49:36 10° NNW 21:55:45 65° WSW 22:02:01 10° SSE daylight
05 Apr - 11:08:34 10° S 11:13:52 38° ESE 11:19:16 10° NE visible
05 Apr - 12:55:08 10° WSW 13:00:13 31° NW 13:05:26 10° N visible
05 Apr - 20:12:56 10° N 20:18:24 31° NE 20:23:57 10° ESE daylight
05 Apr - 21:59:01 10° NW 22:04:51 43° WSW 22:10:46 10° S daylight
06 Apr - 11:17:14 10° SSW 11:22:55 60° ESE 11:28:43 10° NE visible
06 Apr - 13:05:17 10° W 13:09:40 22° NW 13:14:09 10° N visible
06 Apr - 20:21:50 10° NNW 20:27:46 45° ENE 20:33:48 10° SE daylight
06 Apr - 22:08:39 10° NW 22:13:51 28° WSW 22:19:07 10° SSW daylight
07 Apr - 09:45:20 10° ESE 09:46:39 11° E 09:47:57 10° E visible
07 Apr - 11:26:14 10° SSW 11:32:02 89° WNW 11:37:59 10° NNE visible
07 Apr - 13:15:56 10° WNW 13:19:14 15° NW 13:22:35 10° N visible
07 Apr - 18:46:58 10° NNE 18:49:33 13° NE 18:52:08 10° ENE daylight
07 Apr - 20:30:51 10° NNW 20:37:03 67° ENE 20:43:20 10° SE daylight
07 Apr - 22:18:43 10° WNW 22:22:48 18° WSW 22:26:56 10° SW daylight
08 Apr - 09:51:42 10° SE 09:55:30 18° ESE 09:59:21 10° ENE visible
08 Apr - 11:35:32 10° SW 11:41:14 59° WNW 11:47:06 10° NNE visible
08 Apr - 13:27:47 10° NW 13:28:54 10° NW 13:30:00 10° NNW visible
08 Apr - 18:55:05 10° N 18:59:10 18° NE 19:03:18 10° E daylight
08 Apr - 20:40:00 10° NNW 20:46:15 84° WSW 20:52:35 10° SSE daylight
08 Apr - 22:30:04 10° W 22:31:41 11° W 22:33:18 10° WSW daylight
09 Apr - 09:59:33 10° SSE 10:04:26 29° ESE 10:09:23 10° NE visible
09 Apr - 11:45:07 10° SW 11:50:32 40° NW 11:56:05 10° NNE visible
09 Apr - 19:03:39 10° N 19:08:41 25° NE 19:13:47 10° ESE daylight
09 Apr - 20:49:17 10° NW 20:55:22 57° WSW 21:01:33 10° S daylight
